Weather History for Minchumina, AK

Change the Weather History Date:

Sunday, June 30, 2013

  Actual Average Record
Temperature  
Mean Temperature 64 °F -  
Max Temperature 73 °F 67 °F 84 °F (1997)
Min Temperature 55 °F 51 °F 39 °F (2008)
Degree Days  
Heating Degree Days 1    
Growing Degree Days 14 (Base 50)    
Moisture  
Dew Point 52 °F    
Average Humidity 66    
Maximum Humidity 88    
Minimum Humidity 46    
Precipitation  
Precipitation 0.06 in - - ()
Sea Level Pressure  
Sea Level Pressure 29.74 in    
Wind  
Wind Speed 2 mph (SW)    
Max Wind Speed 12 mph    
Max Gust Speed 26 mph    
Visibility 8 miles    
Events      
Averages and records for this station are not official NWS values.
T = Trace of Precipitation, MM = Missing Value Source: NWS Daily Summary

Daily Weather History Graph

Daily Weather History Graph

Search for Another Location

Airport:

Trip Planner

Search our weather history database for the weather conditions in past years. The results will help you decide how hot, cold, wet, or windy it might be!

Date:

Astronomy

Jun. 30, 2013 Rise Set
Actual Time 3:52 AM AKDT 12:32 AM AKDT
Civil Twilight Sun does not rise Sun does not rise
Nautical Twilight Sun does not rise Sun does not rise
Astronomical Twilight Sun does not rise Sun does not rise
Moon 1:12 AM AKDT (6/30) 3:56 PM AKDT (6/30)
Length of Visible Light 24h 00m
Length of Day
20h 40m
Last Quarter, 44% of the Moon is Illuminated
Jun 30
Last Quarter
Jul 7
New
Jul 15
First Quarter
Jul 22
Full
Jul 29
Last Quarter

Hourly Weather History & Observations

Time (AKDT) Temp. Dew Point Humidity Pressure Visibility Wind Dir Wind Speed Gust Speed Precip Events Conditions
12:16 AM 64.4 °F 55.4 °F 73% 29.84 in 3.0 mi Calm Calm - N/A   Partly Cloudy
12:36 AM 64.4 °F 53.6 °F 68% 29.84 in 3.0 mi Calm Calm - N/A   Mostly Cloudy
12:56 AM 64.4 °F 55.4 °F 73% 29.84 in 3.0 mi Calm Calm - N/A   Overcast
1:16 AM 64.4 °F 55.4 °F 73% 29.85 in 3.0 mi Calm Calm - N/A   Overcast
1:36 AM 64.4 °F 55.4 °F 73% 29.85 in 3.0 mi Calm Calm - N/A   Overcast
1:56 AM 64.4 °F 55.4 °F 73% 29.85 in 4.0 mi Calm Calm - N/A   Overcast
2:16 AM 64.4 °F 55.4 °F 73% 29.85 in 6.0 mi Calm Calm - N/A   Overcast
2:36 AM 64.4 °F 53.6 °F 68% 29.84 in 6.0 mi Calm Calm - N/A   Overcast
2:56 AM 62.6 °F 53.6 °F 72% 29.84 in 5.0 mi Calm Calm - N/A   Overcast
3:16 AM 62.6 °F 53.6 °F 72% 29.84 in 3.0 mi Calm Calm - N/A   Overcast
3:36 AM 62.6 °F 53.6 °F 72% 29.84 in 3.0 mi Calm Calm - N/A   Overcast
3:56 AM 62.6 °F 53.6 °F 72% 29.83 in 2.5 mi Calm Calm - N/A   Overcast
4:16 AM 60.8 °F 53.6 °F 77% 29.83 in 5.0 mi Calm Calm - N/A   Overcast
4:36 AM 60.8 °F 55.4 °F 82% 29.83 in 4.0 mi Calm Calm - N/A   Overcast
4:56 AM 59.0 °F 55.4 °F 88% 29.83 in 3.0 mi Calm Calm - N/A   Overcast
5:16 AM 59.0 °F 55.4 °F 88% 29.82 in 4.0 mi Calm Calm - N/A   Overcast
5:36 AM 60.8 °F 55.4 °F 82% 29.81 in 5.0 mi Calm Calm - N/A   Mostly Cloudy
5:56 AM 60.8 °F 55.4 °F 82% 29.81 in 6.0 mi Calm Calm - N/A   Partly Cloudy
6:16 AM 60.8 °F 57.2 °F 88% 29.81 in 6.0 mi Calm Calm - N/A   Clear
6:36 AM 62.6 °F 57.2 °F 82% 29.80 in 7.0 mi Calm Calm - N/A   Clear
6:56 AM 62.6 °F 57.2 °F 82% 29.80 in 8.0 mi Calm Calm - N/A   Clear
7:16 AM 62.6 °F 57.2 °F 82% 29.80 in 9.0 mi Calm Calm - N/A   Clear
7:36 AM 64.4 °F 55.4 °F 73% 29.79 in 10.0 mi Calm Calm - N/A   Clear
7:56 AM 64.4 °F 55.4 °F 73% 29.79 in 10.0 mi Calm Calm - N/A   Clear
8:16 AM 66.2 °F 55.4 °F 68% 29.79 in 10.0 mi SSW 3.5 mph - N/A   Clear
8:36 AM 66.2 °F 55.4 °F 68% 29.79 in 10.0 mi SSW 3.5 mph - N/A   Clear
8:56 AM 66.2 °F 55.4 °F 68% 29.79 in 10.0 mi Calm Calm - N/A   Clear
9:16 AM 68.0 °F 55.4 °F 64% 29.78 in 10.0 mi Calm Calm - N/A   Clear
9:36 AM 69.8 °F 55.4 °F 60% 29.78 in 10.0 mi Calm Calm - N/A   Clear
9:56 AM 69.8 °F 55.4 °F 60% 29.77 in 10.0 mi Calm Calm - N/A   Clear
10:16 AM 69.8 °F 53.6 °F 56% 29.77 in 10.0 mi SW 8.1 mph - N/A   Partly Cloudy
10:36 AM 69.8 °F 51.8 °F 53% 29.76 in 10.0 mi SW 5.8 mph - N/A   Clear
10:56 AM 69.8 °F 51.8 °F 53% 29.76 in 10.0 mi SW 5.8 mph - N/A   Clear
11:16 AM 69.8 °F 51.8 °F 53% 29.76 in 10.0 mi SSW 6.9 mph - N/A   Clear
11:36 AM 69.8 °F 51.8 °F 53% 29.76 in 10.0 mi WSW 3.5 mph - N/A   Clear
11:56 AM 69.8 °F 51.8 °F 53% 29.75 in 10.0 mi SW 6.9 mph - N/A   Clear
12:16 PM 69.8 °F 50.0 °F 49% 29.75 in 10.0 mi SW 5.8 mph - N/A   Partly Cloudy
12:36 PM 69.8 °F 50.0 °F 49% 29.74 in 10.0 mi SW 4.6 mph - N/A   Mostly Cloudy
12:56 PM 69.8 °F 50.0 °F 49% 29.74 in 10.0 mi SW 3.5 mph - N/A   Scattered Clouds
1:16 PM 69.8 °F 50.0 °F 49% 29.72 in 10.0 mi SW 3.5 mph - N/A   Mostly Cloudy
1:36 PM 71.6 °F 50.0 °F 46% 29.72 in 10.0 mi ESE 3.5 mph - N/A   Scattered Clouds
1:56 PM 73.4 °F 51.8 °F 47% 29.72 in 6.0 mi SE 3.5 mph - N/A   Mostly Cloudy
2:16 PM 71.6 °F 51.8 °F 50% 29.71 in 10.0 mi Calm Calm - N/A   Overcast
2:36 PM 71.6 °F 51.8 °F 50% 29.70 in 10.0 mi Calm Calm - N/A   Overcast
2:56 PM 71.6 °F 51.8 °F 50% 29.70 in 9.0 mi Calm Calm - N/A   Overcast
3:16 PM 71.6 °F 51.8 °F 50% 29.69 in 10.0 mi SSW 10.4 mph 17.3 mph N/A   Scattered Clouds
3:36 PM 71.6 °F 50.0 °F 46% 29.68 in 10.0 mi SSW 9.2 mph - N/A   Clear
3:56 PM 71.6 °F 50.0 °F 46% 29.68 in 10.0 mi SSW 10.4 mph 16.1 mph N/A   Clear
4:16 PM 71.6 °F 51.8 °F 50% 29.68 in 10.0 mi SW 9.2 mph 16.1 mph N/A   Clear
4:36 PM 69.8 °F 50.0 °F 49% 29.68 in 10.0 mi SSW 11.5 mph 18.4 mph N/A   Mostly Cloudy
4:56 PM 69.8 °F 48.2 °F 46% 29.67 in 10.0 mi SW 8.1 mph 16.1 mph N/A   Scattered Clouds
5:16 PM 69.8 °F 48.2 °F 46% 29.67 in 10.0 mi SSW 9.2 mph 18.4 mph N/A   Scattered Clouds
5:36 PM 68.0 °F 48.2 °F 49% 29.67 in 10.0 mi SSW 9.2 mph 17.3 mph N/A   Scattered Clouds
5:56 PM 66.2 °F 46.4 °F 49% 29.67 in 10.0 mi SW 9.2 mph 18.4 mph N/A   Mostly Cloudy
6:16 PM 64.4 °F 46.4 °F 52% 29.66 in 10.0 mi South 11.5 mph 18.4 mph N/A   Mostly Cloudy
6:36 PM 62.6 °F 44.6 °F 52% 29.66 in 7.0 mi SW 10.4 mph 26.5 mph N/A   Overcast
6:56 PM 60.8 °F 46.4 °F 59% 29.65 in 10.0 mi SSW 9.2 mph - N/A   Overcast
7:16 PM 57.2 °F 48.2 °F 72% 29.65 in 10.0 mi SSW 6.9 mph - 0.02 in   Overcast
7:36 PM 55.4 °F 48.2 °F 77% 29.65 in 10.0 mi SW 5.8 mph - 0.04 in   Overcast
7:56 PM 55.4 °F 48.2 °F 77% 29.64 in 10.0 mi SSW 5.8 mph - 0.04 in   Overcast
8:16 PM 55.4 °F 48.2 °F 77% 29.64 in 10.0 mi South 6.9 mph - 0.01 in   Overcast
8:36 PM 55.4 °F 48.2 °F 77% 29.64 in 10.0 mi Calm Calm - 0.01 in   Overcast
8:56 PM 55.4 °F 48.2 °F 77% 29.63 in 10.0 mi SSW 5.8 mph - 0.01 in   Overcast
9:16 PM 55.4 °F 48.2 °F 77% 29.62 in 10.0 mi West 4.6 mph - N/A   Overcast
9:36 PM 55.4 °F 48.2 °F 77% 29.62 in 10.0 mi Calm Calm - 0.01 in   Overcast
9:56 PM 55.4 °F 48.2 °F 77% 29.62 in 10.0 mi NW 3.5 mph - 0.01 in   Overcast
10:16 PM 55.4 °F 48.2 °F 77% 29.61 in 10.0 mi Calm Calm - N/A   Overcast
10:36 PM 55.4 °F 48.2 °F 77% 29.61 in 10.0 mi Calm Calm - N/A   Overcast
10:56 PM 55.4 °F 48.2 °F 77% 29.61 in 10.0 mi NW 4.6 mph - N/A   Overcast
11:16 PM 55.4 °F 46.4 °F 72% 29.61 in 10.0 mi Calm Calm - N/A   Overcast
11:36 PM 55.4 °F 46.4 °F 72% 29.62 in 10.0 mi Calm Calm - N/A   Overcast
11:56 PM 55.4 °F 46.4 °F 72% 29.62 in 10.0 mi Calm Calm - N/A   Overcast